Location: ?????????
(41.2393°N, 22.9479°E)
Time: 22:26:31
(UTC+00:00)

Cosmos 1400 Rocket - Pass Details

Date: 17 November 2025
Orbit: 476 x 514 km, 81.1° (Epoch: 09 December)

Event Time Altitude Azimuth Distance (km) Brightness Sun altitude
Rises 15:49:07 0° 151° (SSE) 2,618 6.2 -8.1°
Reaches altitude 10° 15:51:49 10° 130° (SE) 1,734 5.1 -8.6°
Maximum altitude 15:54:18 17° 89° (E) 1,357 4.2 -9.1°
Enters shadow 15:56:28 11° 52° (NE) 1,650 4.7 -9.5°
